Location: Newark
(37.7892°N, 97.1083°W)
Time: 07:38:37
(UTC+00:00)

LightSail 2 - Visible Passes

Search period start: 08 December 2019 00:00
Search period end: 18 December 2019 00:00
Orbit: 696 x 730 km, 24.0° (Epoch: 07 December)

Date Brightness Start Highest point End Pass type
(mag) Time Alt. Az. Time Alt. Az. Time Alt. Az.
08 Dec 7.6 01:33:42 10° SW 01:35:29 12° SSW 01:36:58 11° S visible
09 Dec 7.6 00:35:02 10° SW 00:37:38 14° S 00:40:13 10° SSE visible
09 Dec 7.6 23:36:43 10° SW 23:39:45 16° S 23:42:47 10° SSE visible
11 Dec 7.9 00:25:25 10° SSW 00:26:33 11° SSW 00:27:42 10° S visible
